STARLINK-34608

Last updated on Sat Aug 16 2025 00:02:05 GMT+0000 (Coordinated Universal Time)

1 64810U 25150W 25227.53785592 .00030827 00000+0 70388-3 0 9992 2 64810 70.0006 315.6152 0002977 269.4558 90.6283 15.42739975 5107
UTC large
Height (km)
Speed (km/s)
/
Latitude / Longitude
Inclination (degrees)
Orbital Period (minutes)
Azimuth
Elevation
Range (km)
Doppler Factor

Next 0 passes for location: London (51.5072 / 0.1276)

Sorry there are no passes over London.